EW6749 Weather Reports


time (UTC)temp
C
wind
direction
speed
KPH
gust
KPH
rain 1hr
cm
rain 24hr
cm
rain mn
cm
humidity
%
barometer
mb
20260509090016 11 8 0.0 4.8 0.00 0.00 0.00 91 1016.5
20260509085017 11 3 0.0 3.2 0.00 0.00 0.00 91 1016.5
20260509084037 11 13 0.0 3.2 0.00 0.00 0.00 91 1016.7
20260509083017 11 312 1.6 4.8 0.00 0.00 0.00 91 1016.7
20260509082017 11 340 1.6 6.4 0.00 0.00 0.00 92 1016.8
20260509081018 11 353 0.0 3.2 0.00 0.00 0.00 92 1016.8
20260509080018 11 305 1.6 3.2 0.00 0.00 0.00 93 1016.8
20260509075018 11 315 0.0 1.6 0.00 0.00 0.00 94 1016.9
20260509074016 10 290 0.0 1.6 0.00 0.00 0.00 94 1016.9
20260509073016 10 299 0.0 3.2 0.00 0.00 0.00 94 1016.9
20260509072016 10 298 1.6 3.2 0.00 0.00 0.00 93 1017.0
20260509071017 10 289 1.6 4.8 0.00 0.00 0.00 93 1017.0
20260509070015 11 287 1.6 3.2 0.00 0.00 0.00 93 1017.0
20260509065016 10 285 1.6 4.8 0.00 0.00 0.00 94 1017.1
20260509064017 10 281 1.6 4.8 0.00 0.00 0.00 93 1017.1
20260509063016 10 307 0.0 3.2 0.00 0.00 0.00 93 1017.1
20260509062017 11 278 1.6 3.2 0.00 0.00 0.00 93 1017.1
20260509061016 11 273 0.0 3.2 0.00 0.00 0.00 93 1017.2
20260509060037 11 282 3.2 4.8 0.00 0.00 0.00 93 1017.2
20260509055017 11 292 1.6 4.8 0.00 0.00 0.00 93 1017.3
20260509054017 11 285 3.2 4.8 0.00 0.00 0.00 92 1017.4
20260509053017 11 287 1.6 3.2 0.00 0.00 0.00 92 1017.4
20260509052017 11 283 1.6 3.2 0.00 0.00 0.00 91 1017.4
20260509051018 11 288 1.6 3.2 0.00 0.00 0.00 91 1017.4
20260509050018 11 289 1.6 3.2 0.00 0.00 0.00 90 1017.3
20260509045018 11 320 0.0 3.2 0.00 0.00 0.00 90 1017.2
20260509044016 12 323 1.6 4.8 0.00 0.00 0.00 89 1017.3
20260509043018 12 303 1.6 6.4 0.00 0.00 0.00 89 1017.2
20260509042016 12 353 1.6 6.4 0.00 0.00 0.00 87 1017.1
20260509041016 12 310 1.6 4.8 0.00 0.00 0.00 86 1017.0
20260509040015 13 305 1.6 3.2 0.00 0.00 0.00 85 1017.1
20260509035016 13 310 0.0 3.2 0.00 0.00 0.00 85 1016.9
20260509034016 13 301 1.6 3.2 0.00 0.00 0.00 84 1016.9
20260509033056 13 298 1.6 4.8 0.00 0.00 0.00 83 1016.8
20260509032016 14 290 1.6 4.8 0.00 0.00 0.00 82 1016.8
20260509031017 14 342 0.0 1.6 0.00 0.00 0.00 81 1016.7
20260509030017 15 50 1.6 3.2 0.00 0.00 0.00 81 1016.7
20260509025017 15 43 1.6 3.2 0.00 0.00 0.00 79 1016.6
20260509024019 15 8 0.0 3.2 0.00 0.00 0.00 79 1016.5
20260509023037 15 68 0.0 3.2 0.00 0.00 0.00 79 1016.5
20260509022018 16 141 0.0 3.2 0.00 0.00 0.00 78 1016.5
20260509021059 16 97 1.6 4.8 0.00 0.00 0.00 76 1016.5
20260509020018 17 84 1.6 6.4 0.00 0.00 0.00 74 1016.5
20260509015038 17 77 1.6 4.8 0.00 0.00 0.00 72 1016.5
20260509014039 18 291 0.0 6.4 0.00 0.00 0.00 70 1016.5
20260509013016 18 309 1.6 6.4 0.00 0.00 0.00 65 1016.5
20260509012016 18 21 1.6 4.8 0.00 0.00 0.00 67 1016.5
20260509011016 19 117 1.6 8.0 0.00 0.00 0.00 66 1016.5
20260509010016 19 106 1.6 8.0 0.00 0.00 0.00 63 1016.5
20260509005016 19 120 1.6 6.4 0.00 0.00 0.00 66 1016.6
20260509004017 19 116 1.6 4.8 0.00 0.00 0.00 63 1016.6
20260509003017 19 107 3.2 6.4 0.00 0.00 0.00 64 1016.6
20260509002017 18 109 1.6 6.4 0.00 0.00 0.00 66 1016.8
20260509001017 19 117 3.2 8.0 0.00 0.00 0.00 66 1016.8
20260509000037 19 101 1.6 8.0 0.00 0.00 0.00 66 1016.8
20260508235017 19 170 1.6 6.4 0.00 0.00 0.00 64 1016.9
20260508234018 19 134 1.6 6.4 0.00 0.00 0.00 65 1016.9
20260508233018 20 118 3.2 8.0 0.00 0.00 0.00 62 1016.9
20260508232019 20 118 3.2 8.0 0.00 0.00 0.00 61 1017.0
20260508231018 21 81 1.6 4.8 0.00 0.00 0.00 60 1017.1
20260508230015 20 317 1.6 11.3 0.00 0.00 0.00 60 1017.2
20260508225016 20 115 1.6 8.0 0.00 0.00 0.00 63 1017.4
20260508224018 20 114 1.6 8.0 0.00 0.00 0.00 61 1017.5
20260508223036 20 111 1.6 9.7 0.00 0.00 0.00 61 1017.7
20260508222036 20 109 3.2 8.0 0.00 0.00 0.00 61 1017.7
20260508221016 20 94 1.6 4.8 0.00 0.00 0.00 61 1017.8
20260508220016 20 64 3.2 9.7 0.00 0.00 0.00 61 1017.9
20260508215057 20 116 1.6 8.0 0.00 0.00 0.00 62 1018.0
20260508214017 20 132 1.6 8.0 0.00 0.00 0.00 62 1018.2
20260508213016 20 15 1.6 11.3 0.00 0.00 0.00 63 1018.3
20260508212018 20 294 1.6 9.7 0.00 0.00 0.00 63 1018.4
20260508211037 20 95 1.6 8.0 0.00 0.00 0.00 62 1018.5
20260508210018 20 145 1.6 9.7 0.00 0.00 0.00 61 1018.5
20260508205017 20 103 3.2 12.9 0.00 0.00 0.00 62 1018.5
20260508204018 21 119 3.2 9.7 0.00 0.00 0.00 61 1018.6
20260508203019 20 68 3.2 9.7 0.00 0.00 0.00 60 1018.7
20260508202056 20 106 3.2 8.0 0.00 0.00 0.00 61 1018.7
20260508201015 20 332 1.6 6.4 0.00 0.00 0.00 62 1018.8
20260508200016 20 100 3.2 9.7 0.00 0.00 0.00 61 1018.9
20260508195015 20 317 1.6 8.0 0.00 0.00 0.00 60 1018.9
20260508194016 20 112 3.2 9.7 0.00 0.00 0.00 58 1018.9
20260508193018 20 28 1.6 9.7 0.00 0.00 0.00 58 1019.0
20260508192016 20 326 1.6 12.9 0.00 0.00 0.00 58 1019.0
20260508191017 19 127 3.2 8.0 0.00 0.00 0.00 59 1019.2
20260508190036 20 189 4.8 11.3 0.00 0.00 0.00 58 1019.2
20260508185017 20 117 3.2 8.0 0.00 0.00 0.00 57 1019.2
20260508184017 20 106 1.6 9.7 0.00 0.00 0.00 55 1019.3
20260508183021 19 54 1.6 4.8 0.00 0.00 0.00 56 1019.3
20260508182017 18 67 1.6 9.7 0.00 0.00 0.00 57 1019.4
20260508181018 18 66 1.6 8.0 0.00 0.00 0.00 58 1019.4
20260508180018 17 90 1.6 8.0 0.00 0.00 0.00 60 1019.4
20260508175018 17 91 1.6 6.4 0.00 0.00 0.00 61 1019.5
20260508174018 17 299 3.2 8.0 0.00 0.00 0.00 61 1019.4
20260508173018 17 98 1.6 4.8 0.00 0.00 0.00 64 1019.4
20260508172018 16 17 1.6 8.0 0.00 0.00 0.00 64 1019.5
20260508171016 16 74 1.6 8.0 0.00 0.00 0.00 64 1019.4
20260508170016 16 313 1.6 6.4 0.00 0.00 0.00 66 1019.4
20260508165016 16 80 1.6 8.0 0.00 0.00 0.00 66 1019.4
20260508164016 15 36 1.6 8.0 0.00 0.00 0.00 68 1019.4
20260508163016 15 57 1.6 4.8 0.00 0.00 0.00 69 1019.4
20260508162019 15 41 1.6 11.3 0.00 0.00 0.00 70 1019.5
20260508161017 13 12 1.6 6.4 0.00 0.00 0.00 72 1019.6
20260508160057 13 57 1.6 8.0 0.00 0.00 0.00 77 1019.5
20260508155037 12 329 1.6 3.2 0.00 0.00 0.00 78 1019.6
20260508154018 12 346 1.6 9.7 0.00 0.00 0.00 80 1019.6
20260508153018 12 340 1.6 4.8 0.00 0.00 0.00 81 1019.6
20260508152017 11 302 0.0 3.2 0.00 0.00 0.00 83 1019.6
20260508151017 11 353 0.0 1.6 0.00 0.00 0.00 84 1019.6
20260508150018 11 314 0.0 3.2 0.00 0.00 0.00 84 1019.5
20260508145016 11 305 0.0 3.2 0.00 0.00 0.00 85 1019.6
20260508144015 11 293 3.2 4.8 0.00 0.00 0.00 85 1019.6
20260508143036 11 288 1.6 6.4 0.00 0.00 0.00 86 1019.5
20260508142015 11 293 1.6 4.8 0.00 0.00 0.00 86 1019.3
20260508141016 11 304 1.6 3.2 0.00 0.00 0.00 86 1019.2
20260508140016 11 321 1.6 3.2 0.00 0.00 0.00 86 1019.1
20260508135016 11 310 1.6 4.8 0.00 0.00 0.00 86 1019.0
20260508134016 11 303 0.0 3.2 0.00 0.00 0.00 87 1019.0
20260508133017 11 288 1.6 6.4 0.00 0.00 0.00 87 1018.9
20260508132037 11 291 1.6 4.8 0.00 0.00 0.00 87 1018.8
20260508131016 11 291 1.6 4.8 0.00 0.00 0.00 87 1018.7
20260508130017 11 291 1.6 3.2 0.00 0.00 0.00 87 1018.8
20260508125018 11 310 1.6 3.2 0.00 0.00 0.00 86 1018.8
20260508124058 11 306 0.0 3.2 0.00 0.00 0.00 86 1018.8
20260508123017 11 312 1.6 3.2 0.00 0.00 0.00 86 1018.8
20260508122018 11 308 0.0 3.2 0.00 0.00 0.00 86 1018.9
20260508121016 11 310 1.6 3.2 0.00 0.00 0.00 87 1019.0
20260508120016 11 329 0.0 3.2 0.00 0.00 0.00 86 1018.9
20260508115016 11 299 1.6 4.8 0.00 0.00 0.00 86 1018.9
20260508114016 11 335 1.6 4.8 0.00 0.00 0.00 87 1018.7
20260508113017 12 282 3.2 6.4 0.00 0.00 0.00 86 1018.7
20260508112016 12 308 1.6 6.4 0.00 0.00 0.00 87 1018.7
20260508111037 11 301 1.6 3.2 0.00 0.00 0.00 87 1018.8
20260508110016 11 299 1.6 4.8 0.00 0.00 0.00 88 1018.8
20260508105017 12 283 3.2 6.4 0.00 0.00 0.00 87 1018.7
20260508104017 12 331 3.2 6.4 0.00 0.00 0.00 88 1018.7
20260508103017 12 311 3.2 6.4 0.00 0.00 0.00 87 1018.7
20260508102017 12 313 1.6 4.8 0.00 0.00 0.00 88 1018.6
20260508101038 12 42 0.0 3.2 0.00 0.00 0.00 87 1018.6
20260508100038 12 328 1.6 4.8 0.00 0.00 0.00 87 1018.5
20260508095018 12 355 1.6 6.4 0.00 0.00 0.00 87 1018.5
20260508094015 12 325 1.6 4.8 0.00 0.00 0.00 87 1018.6
20260508093016 12 29 1.6 6.4 0.00 0.00 0.00 87 1018.6
20260508092016 12 352 0.0 3.2 0.00 0.00 0.00 87 1018.5
20260508091016 12 27 1.6 3.2 0.00 0.00 0.00 87 1018.6